Location: Friaudour
(46.0460°N, 1.2873°E)
Time: 04:39:00
(UTC+00:00)

IDEFIX/ARIANE 42P - Pass Details

Date: 14 July 2020
Orbit: 784 x 804 km, 98.4° (Epoch: 06 August)

Event Time Altitude Azimuth Distance (km) Brightness Sun altitude
Rises 03:33:08 0° 11° (N) 3,293 6.7 -7.0°
Reaches altitude 10° 03:35:29 10° 9° (N) 2,358 5.8 -6.7°
Maximum altitude 03:40:37 66° 288° (WNW) 857 2.7 -6.0°
Drops below altitude 10° 03:45:44 10° 207° (SSW) 2,337 4.4 -5.4°
Enters shadow 03:47:22 - 205° (SSW) 2,989 5.0 -5.1°
